This is the latest recevied weather packets stored in our database for station/object KF0JJO. If no packets are shown the sender has not sent any weather packets the latest 10 day(s).
| Time | Temp. | Humidity | Pressure | Rain* | Wind** | Luminosity | Snow |
|---|---|---|---|---|---|---|---|
| 1777801882 | 12.78° C | 44% | 1036.2 hPa | 0 mm | - | 0 W/m² | - |
| 1777800972 | 13.33° C | 42% | 1036.2 hPa | 0 mm | - | 0 W/m² | - |
| 1777800669 | 13.33° C | 42% | 1036.3 hPa | 0 mm | - | 0 W/m² | - |
| 1777800364 | 13.89° C | 41% | 1036.3 hPa | 0 mm | - | 0 W/m² | - |
| 1777800061 | 13.89° C | 40% | 1036.5 hPa | 0 mm | - | 0 W/m² | - |
| 1777799756 | 13.89° C | 40% | 1036.4 hPa | 0 mm | - | 0 W/m² | - |
| 1777799454 | 13.89° C | 40% | 1036.4 hPa | 0 mm | - | 0 W/m² | - |
| 1777799149 | 13.89° C | 40% | 1036.5 hPa | 0 mm | - | 0 W/m² | - |
| 1777798845 | 13.89° C | 40% | 1036.5 hPa | 0 mm | - | 0 W/m² | - |
| 1777798541 | 13.89° C | 40% | 1036.5 hPa | 0 mm | - | 0 W/m² | - |
| 1777798239 | 13.89° C | 40% | 1036.5 hPa | 0 mm | - | 0 W/m² | - |
| 1777797935 | 14.44° C | 40% | 1036.5 hPa | 0 mm | - | 0 W/m² | - |
| 1777797633 | 14.44° C | 39% | 1036.5 hPa | 0 mm | - | 0 W/m² | - |
| 1777797330 | 15° C | 38% | 1036.5 hPa | 0 mm | - | 0 W/m² | - |
| 1777797028 | 14.44° C | 38% | 1036.4 hPa | 0 mm | - | 0 W/m² | - |
| 1777796724 | 15° C | 39% | 1036.6 hPa | 0 mm | - | 0 W/m² | - |
| 1777796421 | 15° C | 39% | 1036.8 hPa | 0 mm | - | 0 W/m² | - |
| 1777796116 | 15° C | 39% | 1036.6 hPa | 0 mm | - | 0 W/m² | - |
| 1777795813 | 15° C | 41% | 1036.5 hPa | 0 mm | - | 0 W/m² | - |
| 1777795509 | 15° C | 40% | 1036.8 hPa | 0 mm | - | 0 W/m² | - |
| 1777795206 | 14.44° C | 41% | 1036.8 hPa | 0 mm | - | 0 W/m² | - |
| 1777794903 | 14.44° C | 43% | 1036.5 hPa | 0 mm | - | 0 W/m² | - |
| 1777794294 | 14.44° C | 44% | 1037 hPa | 0 mm | - | 0 W/m² | - |
| 1777793990 | 14.44° C | 44% | 1036.9 hPa | 0 mm | - | 0 W/m² | - |
| 1777793687 | 13.89° C | 45% | 1036.8 hPa | 0 mm | - | 0 W/m² | - |
* Rain latest hour (hover to see other rain measurements)
** Current wind speed in m/s (hover to see current wind gust speed)